EW6230 Weather Reports


Display with metric or nautical units.
time (UTC)temp
F
wind
direction
speed
MPH
gust
MPH
rain 1hr
in
rain 24hr
in
rain mn
in
humidity
%
barometer
mb
20260903234600 63 210 0.0 0.0 0.01 0.01 0.01 48 1005.7
20260903233055 61 210 0.0 2.0 0.01 0.01 0.01 49 1005.8
20260903231556 61 279 0.0 0.0 0.01 0.01 0.01 1 1005.9
20260903230050 60 279 0.0 0.0 0.00 0.00 0.00 6 1006.1
20260903224546 60 279 0.0 0.0 0.00 0.00 0.00 3 1006.2
20260903223039 60 279 0.0 1.0 0.00 0.00 0.00 29 1006.2
20260903221546 60 274 0.0 0.0 0.00 0.00 0.00 29 1006.2
20260903220031 60 274 0.0 0.0 0.00 0.00 0.00 21 1006.1
20260903214526 60 274 0.0 0.0 0.00 0.00 0.00 22 1006.2
20260903213023 60 274 0.0 0.0 0.00 0.00 0.00 38 1006.2
20260903211517 61 274 0.0 0.0 0.00 0.00 0.00 48 1006.0
20260903210015 60 248 0.0 0.0 0.00 0.00 0.00 51 1005.9
20260903204508 59 96 0.0 1.0 0.00 0.00 0.00 49 1005.9
20260903203005 59 129 0.0 1.0 0.00 0.00 0.00 46 1005.7
20260903201600 60 129 0.0 1.0 0.00 0.00 0.00 52 1005.6
20260903200055 60 79 0.0 1.0 0.00 0.00 0.00 56 1005.6
20260903194551 61 314 0.0 1.0 0.00 0.00 0.00 57 1005.6
20260903193048 62 95 0.0 2.0 0.00 0.00 0.00 57 1005.5
20260903191542 63 262 0.0 1.0 0.00 0.00 0.00 59 1005.3
20260903190037 64 219 0.0 1.0 0.00 0.00 0.00 62 1005.3
20260903184533 64 319 0.0 1.0 0.00 0.00 0.00 59 1005.2
20260903183029 63 139 0.0 1.0 0.00 0.00 0.00 55 1005.1
20260903181524 61 321 0.0 1.0 0.00 0.00 0.00 45 1005.0
20260903180033 60 352 0.0 1.0 0.00 0.00 0.00 37 1004.7
20260903174515 60 359 0.0 1.0 0.00 0.00 0.00 44 1004.6
20260903173010 60 2 0.0 1.0 0.00 0.00 0.00 46 1004.4
20260903171505 61 227 0.0 4.0 0.00 0.00 0.00 46 1004.3
20260903170001 61 217 0.0 1.0 0.00 0.00 0.00 43 1004.1
20260903164605 60 246 0.0 0.0 0.00 0.00 0.00 37 1004.0
20260903163052 59 246 0.0 0.0 0.00 0.00 0.00 19 1004.0
20260903161549 59 246 0.0 2.0 0.00 0.00 0.00 23 1004.0
20260903160043 59 1 0.0 0.0 0.00 0.00 0.00 10 1004.0
20260903154538 59 1 0.0 0.0 0.00 0.00 0.00 1 1004.0
20260903153034 56 1 0.0 0.0 0.00 0.00 0.00 1 1003.9
20260903151530 54 1 0.0 0.0 0.00 0.00 0.00 1 1004.0
20260903150026 53 1 0.0 1.0 0.00 0.00 0.00 1 1003.9
20260903144521 52 360 0.0 0.0 0.00 0.00 0.00 1 1003.9
20260903143016 52 359 0.0 0.0 0.00 0.00 0.00 1 1003.8
20260903141515 0 0.0 0.0 0.00 0.00 0.00 1003.6
20260903140007 0 0.0 0.0 0.00 0.00 0.00 1003.5
20260903134504 0 0.0 0.0 0.00 0.00 0.00 1003.4
20260903133059 0 0.0 0.0 0.00 0.00 0.00 1003.2
20260903131555 0 0.0 0.0 0.00 0.00 0.00 1003.0
20260903130112 0 0.0 0.0 0.00 0.00 0.00 1002.9
20260903124547 0 0.0 0.0 0.00 0.00 0.00 1003.1
20260903123044 0 0.0 0.0 0.00 0.00 0.00 1002.9
20260903121546 0 0.0 0.0 0.00 0.00 0.00 1002.7
20260903120035 52 254 0.0 0.0 0.00 0.00 0.00 1 1002.7
20260903114534 53 248 0.0 0.0 0.00 0.00 0.00 1 1002.6
20260903113034 53 248 0.0 0.0 0.00 0.00 0.00 1 1002.5
20260903111522 52 248 0.0 0.0 0.00 0.00 0.00 1 1002.3
20260903110039 52 249 0.0 0.0 0.00 0.00 0.00 1 1002.2
20260903104514 52 249 0.0 0.0 0.00 0.00 0.00 1 1002.1
20260903103010 52 249 0.0 0.0 0.00 0.00 0.00 1 1002.0
20260903101507 52 248 0.0 0.0 0.00 0.00 0.00 1 1002.0
20260903094600 52 249 0.0 0.0 0.00 0.00 0.00 1 1001.9
20260903093053 52 249 0.0 1.0 0.00 0.00 0.00 1 1001.9
20260903091548 52 249 0.0 1.0 0.00 0.00 0.00 1 1001.8
20260903090044 53 249 0.0 0.0 0.00 0.00 0.00 1 1001.8
20260903084539 53 248 0.0 0.0 0.00 0.00 0.00 1 1001.7
20260903083036 53 248 0.0 0.0 0.00 0.00 0.00 1 1001.9
20260903081541 53 249 0.0 0.0 0.00 0.00 0.00 1 1001.8
20260903080026 53 248 0.0 0.0 0.00 0.00 0.00 1 1001.8
20260903074520 53 249 0.0 0.0 0.00 0.00 0.00 1 1001.6
20260903073017 53 248 0.0 0.0 0.00 0.00 0.00 1 1001.6
20260903071515 53 249 0.0 0.0 0.00 0.00 0.00 1 1001.5
20260903070011 53 248 0.0 0.0 0.00 0.00 0.00 1 1001.6
20260903064507 52 248 0.0 0.0 0.00 0.00 0.00 1 1001.5
20260903063005 52 248 0.0 0.0 0.00 0.00 0.00 1 1001.4
20260903061601 52 249 0.0 0.0 0.00 0.00 0.00 1 1001.5
20260903060053 52 248 0.0 0.0 0.00 0.00 0.00 1 1001.6
20260903054551 53 249 0.0 1.0 0.00 0.00 0.00 1 1001.5
20260903053102 53 238 0.0 0.0 0.00 0.00 0.00 1 1001.5
20260903051541 53 238 0.0 1.0 0.00 0.00 0.00 1 1001.5
20260903050035 54 62 0.0 1.0 0.00 0.00 0.00 1 1001.3
20260903044533 53 80 0.0 1.0 0.00 0.00 0.00 1 1001.3
20260903043026 53 156 0.0 1.0 0.00 0.00 0.00 1 1001.1
20260903041528 54 146 0.0 0.0 0.00 0.00 0.00 1 1001.0
20260903040019 54 210 0.0 1.0 0.00 0.00 0.00 1 1000.5
20260903034514 55 207 0.0 1.0 0.00 0.00 0.00 1 1000.1
20260903033010 55 239 0.0 0.0 0.00 0.00 0.00 1 999.8
20260903031505 55 238 0.0 0.0 0.00 0.00 0.00 1 999.3
20260903030004 56 241 0.0 1.0 0.00 0.00 0.00 1 998.9
20260903024556 57 235 0.0 1.0 0.00 0.00 0.00 1 998.7
20260903023055 57 237 0.0 1.0 0.00 0.00 0.00 1 998.7
20260903021604 57 237 0.0 1.0 0.00 0.00 0.00 1 998.4
20260903020043 58 233 0.0 0.0 0.00 0.00 0.00 1 998.2
20260903014543 58 233 0.0 0.0 0.00 0.00 0.00 1 998.0
20260903013034 59 233 0.0 0.0 0.00 0.00 0.00 1 997.6
20260903011540 59 233 0.0 1.0 0.00 0.00 0.00 1 997.1
20260903010029 59 226 0.0 1.0 0.00 0.00 0.00 1 997.0
20260903004531 59 200 0.0 1.0 0.00 0.00 0.00 1 996.5
20260903003021 59 160 0.0 0.0 0.00 0.00 0.00 1 996.2
20260903001516 60 160 0.0 1.0 0.00 0.00 0.00 1 996.0
20260903000011 61 251 0.0 0.0 0.00 0.00 0.00 1 996.1